[[{"header":{"parameterUnit":"m.s-1","parameterCategory":1,"la1":30.2991,"la2":30.254,"lo1":-89.0895,"lo2":-89.0444,"dy":0.0017,"dx":0.0017,"nx":28,"ny":28,"refTime":"2025-03-20T21:00:00:Z","depth":0,"parameterNumber":2,"parameterNumberName":"U-component_of_WINDS"},"data":[0,0,0,0,0,0,0,0,0,0,0,0,0,0,0,0,0,0,0,0,0,0,0,0,0,0,0,0,0,0,0,0,0,0,0,0,0,0,0,0,0,0,0,0,0,0,0,0,0,0,0,0,0,0,0,0,0,0,2.1304,2.1305,0,2.1331,2.1331,2.1332,2.1367,2.1368,2.1368,2.1369,2.1394,2.1394,2.1394,0,0,0,0,0,0,0,0,0,0,0,0,0,2.1283,2.1283,2.1304,2.1305,2.1305,2.1331,2.1331,2.1332,2.1367,2.1368,2.1368,2.1369,2.1394,2.1394,2.1394,0,0,0,0,0,0,0,0,0,0,0,0,0,2.1299,2.1284,2.1304,2.1326,2.1328,2.1331,2.1331,2.1332,2.1367,2.1368,2.1369,2.1369,2.1394,2.1394,2.1394,2.1377,0,0,2.1394,2.1394,0,0,0,0,0,0,0,0,2.1298,2.13,2.1322,2.1324,2.1327,2.1347,2.1333,2.1347,2.1367,2.1352,2.1369,2.137,2.1377,2.1379,2.1382,2.1378,2.1379,2.1394,2.1394,2.1394,2.1394,0,0,0,0,0,0,0,2.1297,2.1299,2.1315,2.1323,2.1325,2.1334,2.1337,2.1336,2.1359,2.1353,2.1356,2.1359,2.1378,2.1381,2.1382,2.1379,2.1394,2.1394,2.1395,2.1395,2.1364,2.1363,0,0,0,0,0,0,2.1293,2.1298,2.1314,2.1316,2.1315,2.1334,2.1337,2.1339,2.1359,2.1363,2.1358,2.136,2.1381,2.1382,2.1383,2.1365,2.1394,2.1395,2.1395,2.1365,2.1364,2.1363,0,0,0,0,0,0,2.1292,2.1294,2.1313,2.1308,2.1311,2.1333,2.1335,2.1339,2.1342,2.1363,2.1367,2.1357,2.1381,2.1383,2.1379,2.1367,2.1395,2.1395,2.1366,2.1365,2.1363,2.1328,0,0,0,0,0,0,2.1292,2.1294,2.1288,2.1307,2.1311,2.1308,2.1334,2.1339,2.1343,2.1346,2.1363,2.1366,2.1382,2.1378,2.1379,2.1367,2.1395,2.1367,2.1366,2.1364,2.133,2.1326,2.1322,0,0,0,0,0,2.1291,2.1276,2.1287,2.1289,2.1304,2.1307,2.1309,2.1328,2.1342,2.1336,2.1349,2.1366,2.1368,2.1377,2.1378,2.1367,2.1368,2.1366,2.1364,2.1332,2.1327,2.1322,0,0,0,0,0,0,2.1253,2.1279,2.1291,2.1283,2.1293,2.1313,2.1306,2.1322,2.1327,2.133,2.1353,2.1357,2.1349,2.1358,2.1368,2.1352,2.1371,2.1369,2.1346,2.1341,2.1337,2.1334,2.1395,0,0,0,0,0,2.1244,2.1245,2.1267,2.1257,2.1262,2.1283,2.1285,2.13,2.131,2.1314,2.1327,2.1337,2.134,2.1341,2.1345,2.1332,2.1337,2.1325,2.1321,2.1317,2.1315,2.1309,2.1304,2.1356,2.1356,2.1356,0,0,2.1224,2.1239,2.1238,2.125,2.126,2.126,2.1286,2.1285,2.1285,2.1314,2.1311,2.1321,2.1333,2.1324,2.1321,2.1331,2.1302,2.1314,2.1311,2.1311,2.1307,2.1302,2.1297,2.1355,2.1355,2.1355,0,0,2.1189,2.12,2.1193,2.1203,2.1217,2.1232,2.123,2.1249,2.1257,2.1254,2.1276,2.1277,2.1281,2.1289,2.1294,2.1263,2.1279,2.1264,2.1241,2.1235,2.1231,2.1227,2.1216,2.1212,2.1262,2.1262,2.1262,0,2.1163,2.1165,2.1188,2.1186,2.1191,2.1218,2.1211,2.1219,2.1233,2.1236,2.1247,2.1254,2.1264,2.1258,2.1251,2.1254,2.1253,2.1261,2.123,2.1227,2.1224,2.1213,2.1209,2.126,2.126,2.126,2.126,0,2.1132,2.1133,2.1126,2.114,2.1145,2.114,2.1162,2.1163,2.1178,2.1191,2.1188,2.1202,2.1209,2.1209,2.1222,2.1205,2.1211,2.1226,2.1245,2.1216,2.1207,2.1203,2.1257,2.1258,2.1258,2.1259,0,0,2.1072,2.1101,2.1097,2.1105,2.1124,2.1125,2.1122,2.113,2.1131,2.114,2.1138,2.1142,2.1157,2.1162,2.1177,2.1172,2.1147,2.1188,2.1188,2.1179,2.1129,2.1117,2.1113,2.1159,2.1158,2.1157,2.1128,0,2.104,2.1037,2.1058,2.1049,2.105,2.1078,2.1075,2.1086,2.1099,2.1102,2.1116,2.1118,2.1137,2.1141,2.1137,2.1151,2.1138,2.1154,2.1156,2.1156,2.1151,2.1108,2.1095,2.1067,2.1125,2.1124,2.1124,0,2.1001,2.101,2.1001,2.1022,2.1023,2.1021,2.1031,2.1033,2.1047,2.1056,2.1063,2.1081,2.1079,2.1099,2.1097,2.1107,2.111,2.1117,2.1117,2.1117,2.1137,2.1106,2.1058,2.1053,2.1118,2.1119,2.1119,0,2.0958,2.0967,2.0964,2.0969,2.0993,2.0991,2.1,2.1015,2.1019,2.1028,2.103,2.1038,2.1042,2.1048,2.1068,2.108,2.1064,2.1084,2.1071,2.107,2.1065,2.1065,2.1016,2.1068,2.1068,2.1068,2.1068,0,2.0919,2.0913,2.0945,2.0942,2.0937,2.0961,2.0955,2.0967,2.098,2.098,2.1004,2.1004,2.103,2.1033,2.1048,2.1044,2.1046,2.1054,2.1057,2.1051,2.105,2.1052,2.1054,2.1067,2.1067,2.1068,2.1068,0,2.0869,2.089,2.0888,2.0912,2.0917,2.0912,2.0932,2.093,2.0945,2.0946,2.0947,2.097,2.0975,2.0996,2.1005,2.1015,2.1006,2.1014,2.1001,2.1004,2.0989,2.099,2.0939,2.0934,2.099,2.0989,2.0989,0,2.0842,2.0838,2.0862,2.0864,2.0873,2.0877,2.0881,2.0906,2.091,2.0926,2.0922,2.0929,2.0936,2.0942,2.0959,2.0967,2.0975,2.0957,2.0976,2.097,2.0974,2.0974,2.0974,2.0952,2.0952,2.0951,2.095,0,2.0792,2.0804,2.081,2.082,2.0826,2.0834,2.0845,2.0845,2.0873,2.0876,2.0882,2.0887,2.0897,2.0903,2.0914,2.0924,2.0941,2.0945,2.0942,2.0935,2.0927,2.0931,2.0989,2.0945,2.0946,2.0946,2.0946,2.0947,2.0753,2.0751,2.0768,2.0774,2.0785,2.0794,2.0795,2.0811,2.0816,2.0827,2.0841,2.0845,2.086,2.0876,2.0884,2.0887,2.0897,2.0893,2.0892,2.0891,2.0887,2.0928,2.0889,2.089,2.089,2.089,2.089,0,2.0704,2.0717,2.0723,2.0737,2.0742,2.076,2.0773,2.0776,2.0779,2.0792,2.0799,2.0805,2.0812,2.0831,2.0839,2.0838,2.0847,2.084,2.0839,2.0841,2.0878,2.0879,2.0833,2.0833,2.0833,2.0833,2.0833,2.0833,2.0679,2.0677,2.0691,2.0694,2.0707,2.0712,2.0717,2.0726,2.0737,2.0744,2.075,2.0762,2.0778,2.0788,2.0795,2.08,2.0802,2.0792,2.08,2.0833,2.0839,2.0844,2.0845,2.0792,2.0792,2.0763,2.0763,2.0763]},{"header":{"parameterUnit":"m.s-1","parameterCategory":1,"la1":30.2991,"la2":30.254,"lo1":-89.0895,"lo2":-89.0444,"dy":0.0017,"dx":0.0017,"nx":28,"ny":28,"refTime":"2025-03-20T21:00:00:Z","depth":0,"parameterNumber":3,"parameterNumberName":"V-component_of_WINDS"},"data":[0,0,0,0,0,0,0,0,0,0,0,0,0,0,0,0,0,0,0,0,0,0,0,0,0,0,0,0,0,0,0,0,0,0,0,0,0,0,0,0,0,0,0,0,0,0,0,0,0,0,0,0,0,0,0,0,0,0,-1.3114,-1.3115,0,-1.3263,-1.3264,-1.3266,-1.3321,-1.332,-1.332,-1.3319,-1.3472,-1.3477,-1.3481,0,0,0,0,0,0,0,0,0,0,0,0,0,-1.2878,-1.2882,-1.3113,-1.3115,-1.3117,-1.3262,-1.3264,-1.3266,-1.3321,-1.332,-1.3319,-1.3319,-1.3471,-1.3476,-1.3482,0,0,0,0,0,0,0,0,0,0,0,0,0,-1.2999,-1.2883,-1.3113,-1.3162,-1.3168,-1.3262,-1.3265,-1.3267,-1.3321,-1.332,-1.3319,-1.3319,-1.3469,-1.3476,-1.3483,-1.354,0,0,-1.3503,-1.3506,0,0,0,0,0,0,0,0,-1.2992,-1.3007,-1.3153,-1.3159,-1.3165,-1.3272,-1.3238,-1.3358,-1.3321,-1.3263,-1.3319,-1.3318,-1.3407,-1.3418,-1.3448,-1.3547,-1.3554,-1.3504,-1.3508,-1.3511,-1.3513,0,0,0,0,0,0,0,-1.2983,-1.3001,-1.3173,-1.3155,-1.3162,-1.3177,-1.3193,-1.3261,-1.3337,-1.3268,-1.3272,-1.3289,-1.341,-1.3441,-1.3452,-1.3556,-1.3504,-1.351,-1.3514,-1.3517,-1.3711,-1.3712,0,0,0,0,0,0,-1.2967,-1.2994,-1.3168,-1.3177,-1.3075,-1.3182,-1.32,-1.3239,-1.3336,-1.3351,-1.3289,-1.3291,-1.343,-1.3444,-1.3458,-1.3532,-1.3511,-1.3517,-1.3521,-1.371,-1.3711,-1.3712,0,0,0,0,0,0,-1.2961,-1.2982,-1.3162,-1.3087,-1.3111,-1.3186,-1.323,-1.3242,-1.3274,-1.3353,-1.3367,-1.3307,-1.343,-1.3448,-1.3519,-1.3538,-1.3521,-1.3527,-1.3708,-1.371,-1.3711,-1.368,0,0,0,0,0,0,-1.2954,-1.2979,-1.3001,-1.3087,-1.3114,-1.322,-1.3231,-1.3245,-1.3285,-1.3289,-1.3373,-1.3387,-1.3431,-1.3509,-1.3526,-1.3547,-1.3532,-1.3707,-1.3709,-1.3711,-1.368,-1.368,-1.3681,0,0,0,0,0,-1.2946,-1.2986,-1.3002,-1.3023,-1.3143,-1.3221,-1.3237,-1.3287,-1.3286,-1.331,-1.3361,-1.3384,-1.3533,-1.3516,-1.3535,-1.3559,-1.3706,-1.3709,-1.3711,-1.3679,-1.368,-1.3681,0,0,0,0,0,0,-1.2901,-1.2998,-1.3017,-1.3086,-1.3145,-1.323,-1.3261,-1.3286,-1.3346,-1.3346,-1.3406,-1.3424,-1.3491,-1.3532,-1.3511,-1.362,-1.3621,-1.3628,-1.359,-1.3592,-1.3592,-1.3581,-1.3538,0,0,0,0,0,-1.2899,-1.2954,-1.3036,-1.3089,-1.3118,-1.3184,-1.322,-1.3253,-1.3316,-1.3341,-1.3398,-1.3458,-1.3519,-1.3558,-1.3618,-1.3686,-1.3706,-1.3712,-1.3713,-1.3713,-1.3717,-1.3757,-1.3761,-1.372,-1.372,-1.372,0,0,-1.2896,-1.2956,-1.2987,-1.3082,-1.3131,-1.3187,-1.3205,-1.3262,-1.3305,-1.335,-1.3421,-1.3465,-1.3537,-1.3606,-1.364,-1.3643,-1.3734,-1.3716,-1.3715,-1.372,-1.376,-1.3764,-1.3768,-1.3721,-1.3721,-1.3721,0,0,-1.2918,-1.2969,-1.302,-1.3069,-1.3144,-1.3188,-1.32,-1.3282,-1.3312,-1.3384,-1.342,-1.3471,-1.3574,-1.3625,-1.3663,-1.3707,-1.3731,-1.3725,-1.3727,-1.3766,-1.3769,-1.3772,-1.3788,-1.3793,-1.3729,-1.3729,-1.3729,0,-1.2905,-1.299,-1.3042,-1.3099,-1.314,-1.3184,-1.3236,-1.3282,-1.3372,-1.34,-1.3402,-1.3533,-1.3585,-1.3667,-1.3678,-1.3708,-1.3724,-1.3715,-1.3764,-1.3768,-1.3772,-1.3788,-1.3793,-1.3728,-1.3728,-1.3728,-1.3729,0,-1.297,-1.3029,-1.306,-1.3147,-1.3192,-1.3246,-1.3307,-1.3346,-1.3376,-1.342,-1.3494,-1.3557,-1.3631,-1.3654,-1.3683,-1.3741,-1.3741,-1.3753,-1.3755,-1.3774,-1.379,-1.3796,-1.3726,-1.3727,-1.3727,-1.3728,0,0,-1.2967,-1.3083,-1.3094,-1.3134,-1.3221,-1.3267,-1.3324,-1.3396,-1.3429,-1.3491,-1.354,-1.3627,-1.3639,-1.3683,-1.3719,-1.3753,-1.3784,-1.3761,-1.3764,-1.3763,-1.3852,-1.3842,-1.3848,-1.38,-1.3802,-1.3803,-1.3846,0,-1.3001,-1.3104,-1.3153,-1.3234,-1.3289,-1.3333,-1.3382,-1.3441,-1.3484,-1.3538,-1.3586,-1.3647,-1.3658,-1.3685,-1.372,-1.3772,-1.3802,-1.377,-1.3847,-1.3849,-1.3827,-1.3857,-1.3846,-1.3884,-1.3853,-1.3854,-1.3855,0,-1.3054,-1.3116,-1.3202,-1.3283,-1.3308,-1.3351,-1.3423,-1.3473,-1.3541,-1.3571,-1.362,-1.3655,-1.3717,-1.3716,-1.3803,-1.3779,-1.3814,-1.3845,-1.3847,-1.3856,-1.3853,-1.3866,-1.3897,-1.3903,-1.3865,-1.3864,-1.3863,0,-1.3044,-1.3148,-1.3214,-1.3247,-1.3343,-1.3372,-1.3414,-1.3481,-1.3522,-1.3585,-1.3612,-1.3681,-1.3719,-1.3772,-1.3825,-1.3819,-1.3907,-1.3909,-1.3933,-1.3932,-1.3949,-1.3947,-1.3986,-1.3972,-1.3972,-1.3971,-1.3971,0,-1.3076,-1.3127,-1.321,-1.325,-1.3309,-1.3367,-1.3424,-1.3469,-1.3528,-1.3579,-1.3621,-1.3667,-1.3735,-1.379,-1.3832,-1.3898,-1.3915,-1.394,-1.3951,-1.3936,-1.3933,-1.396,-1.3958,-1.3973,-1.3973,-1.3972,-1.3972,0,-1.3074,-1.3132,-1.3206,-1.3291,-1.3314,-1.3354,-1.3427,-1.3468,-1.3514,-1.3577,-1.3595,-1.3667,-1.3735,-1.3793,-1.3882,-1.391,-1.3978,-1.3991,-1.3955,-1.396,-1.3981,-1.3978,-1.4038,-1.4049,-1.4027,-1.4027,-1.4027,0,-1.3091,-1.3131,-1.3221,-1.3258,-1.3299,-1.3357,-1.3399,-1.3458,-1.35,-1.3582,-1.3613,-1.3684,-1.3743,-1.3848,-1.3909,-1.3977,-1.3992,-1.4009,-1.4003,-1.3987,-1.3993,-1.3989,-1.3994,-1.4008,-1.4008,-1.4008,-1.4008,0,-1.3115,-1.3141,-1.32,-1.327,-1.3319,-1.3377,-1.3435,-1.3463,-1.3533,-1.3578,-1.3648,-1.3694,-1.3785,-1.3854,-1.393,-1.3973,-1.4003,-1.401,-1.4019,-1.4004,-1.3982,-1.3994,-1.3955,-1.4008,-1.4008,-1.4008,-1.4008,-1.4008,-1.3123,-1.3161,-1.3231,-1.3295,-1.3346,-1.34,-1.3443,-1.3495,-1.3553,-1.3632,-1.3663,-1.3734,-1.3803,-1.3907,-1.3951,-1.4007,-1.4012,-1.4025,-1.4029,-1.4031,-1.4029,-1.3973,-1.4021,-1.4022,-1.4022,-1.4022,-1.4022,0,-1.3149,-1.3196,-1.3255,-1.3336,-1.3387,-1.3411,-1.3477,-1.3519,-1.358,-1.3642,-1.37,-1.378,-1.3848,-1.3914,-1.3986,-1.4019,-1.4034,-1.4036,-1.4034,-1.4043,-1.402,-1.4005,-1.4022,-1.4022,-1.4022,-1.4022,-1.4022,-1.4022,-1.3168,-1.3235,-1.327,-1.3362,-1.3409,-1.3479,-1.3515,-1.3566,-1.3615,-1.3703,-1.376,-1.3802,-1.3866,-1.3943,-1.4007,-1.4025,-1.405,-1.4047,-1.4069,-1.4046,-1.4045,-1.4044,-1.403,-1.4052,-1.4052,-1.4088,-1.4088,-1.4088]}]]